| time (UTC) | temp F | wind direction | speed knots | gust knots | rain 1hr in | rain 24hr in | rain mn in | humidity % | barometer mb |
| 20260503225322 | 72 | 213 | 1.7 | 1.7 | 0.00 | 0.00 | 0.00 | 26 | 1005.2 |
| 20260503224818 | 72 | 254 | 1.7 | 2.6 | 0.00 | 0.00 | 0.00 | 27 | 1005.2 |
| 20260503224316 | 72 | 33 | 1.7 | 4.3 | 0.00 | 0.00 | 0.00 | 26 | 1005.0 |
| 20260503223814 | 72 | 44 | 5.2 | 7.8 | 0.00 | 0.00 | 0.00 | 24 | 1005.4 |
| 20260503223311 | 72 | 219 | 1.7 | 1.7 | 0.00 | 0.00 | 0.00 | 26 | 1005.0 |
| 20260503222806 | 72 | 62 | 4.3 | 6.1 | 0.00 | 0.00 | 0.00 | 24 | 1005.2 |
| 20260503222305 | 72 | 148 | 2.6 | 2.6 | 0.00 | 0.00 | 0.00 | 24 | 1005.2 |
| 20260503221803 | 72 | 195 | 0.9 | 1.7 | 0.00 | 0.00 | 0.00 | 24 | 1005.2 |
| 20260503221301 | 72 | 21 | 6.1 | 8.7 | 0.00 | 0.00 | 0.00 | 24 | 1005.3 |
| 20260503220757 | 72 | 223 | 1.7 | 2.6 | 0.00 | 0.00 | 0.00 | 25 | 1005.3 |
| 20260503220254 | 72 | 276 | 0.9 | 1.7 | 0.00 | 0.00 | 0.00 | 26 | 1005.4 |
| 20260503215751 | 72 | 37 | 3.5 | 7.8 | 0.00 | 0.00 | 0.00 | 25 | 1005.4 |
| 20260503215248 | 73 | 205 | 1.7 | 1.7 | 0.00 | 0.00 | 0.00 | 26 | 1005.4 |
| 20260503214746 | 73 | 195 | 1.7 | 1.7 | 0.00 | 0.00 | 0.00 | 27 | 1005.5 |
| 20260503214242 | 74 | 180 | 0.0 | 0.0 | 0.00 | 0.00 | 0.00 | 25 | 1005.4 |
| 20260503213740 | 73 | 311 | 6.1 | 8.7 | 0.00 | 0.00 | 0.00 | 25 | 1005.4 |
| 20260503213238 | 73 | 119 | 1.7 | 2.6 | 0.00 | 0.00 | 0.00 | 31 | 1005.7 |
| 20260503212734 | 73 | 73 | 1.7 | 1.7 | 0.00 | 0.00 | 0.00 | 25 | 1005.5 |
| 20260503212232 | 74 | 220 | 1.7 | 2.6 | 0.00 | 0.00 | 0.00 | 28 | 1005.6 |
| 20260503211729 | 73 | 219 | 1.7 | 1.7 | 0.00 | 0.00 | 0.00 | 27 | 1005.6 |
| 20260503211225 | 73 | 267 | 5.2 | 8.7 | 0.00 | 0.00 | 0.00 | 27 | 1005.5 |
| 20260503210721 | 73 | 281 | 0.9 | 2.6 | 0.00 | 0.00 | 0.00 | 28 | 1005.7 |
| 20260503210219 | 72 | 320 | 1.7 | 2.6 | 0.00 | 0.00 | 0.00 | 28 | 1006.0 |
| 20260503205714 | 72 | 208 | 1.7 | 1.7 | 0.00 | 0.00 | 0.00 | 30 | 1005.7 |
| 20260503205210 | 72 | 80 | 1.7 | 1.7 | 0.00 | 0.00 | 0.00 | 29 | 1005.7 |
| 20260503204707 | 72 | 330 | 5.2 | 7.8 | 0.00 | 0.00 | 0.00 | 28 | 1005.8 |
| 20260503204205 | 73 | 4 | 5.2 | 7.8 | 0.00 | 0.00 | 0.00 | 29 | 1005.7 |
| 20260503203701 | 73 | 159 | 1.7 | 2.6 | 0.00 | 0.00 | 0.00 | 30 | 1005.7 |
| 20260503203159 | 72 | 193 | 2.6 | 4.3 | 0.00 | 0.00 | 0.00 | 30 | 1005.9 |
| 20260503202656 | 72 | 213 | 1.7 | 1.7 | 0.00 | 0.00 | 0.00 | 31 | 1005.9 |
| 20260503202154 | 71 | 232 | 1.7 | 2.6 | 0.00 | 0.00 | 0.00 | 30 | 1005.9 |
| 20260503201652 | 72 | 327 | 9.6 | 10.4 | 0.00 | 0.00 | 0.00 | 29 | 1006.1 |
| 20260503201149 | 72 | 228 | 1.7 | 2.6 | 0.00 | 0.00 | 0.00 | 29 | 1006.0 |
| 20260503200645 | 72 | 281 | 5.2 | 7.8 | 0.00 | 0.00 | 0.00 | 28 | 1006.0 |
| 20260503200141 | 73 | 263 | 0.0 | 1.7 | 0.00 | 0.00 | 0.00 | 31 | 1006.3 |
| 20260503195638 | 72 | 165 | 4.3 | 6.1 | 0.00 | 0.00 | 0.00 | 29 | 1006.1 |
| 20260503195135 | 71 | 190 | 3.5 | 6.1 | 0.00 | 0.00 | 0.00 | 27 | 1006.5 |
| 20260503194632 | 73 | 124 | 4.3 | 7.8 | 0.00 | 0.00 | 0.00 | 28 | 1006.5 |
| 20260503194127 | 73 | 11 | 3.5 | 4.3 | 0.00 | 0.00 | 0.00 | 30 | 1006.5 |
| 20260503193625 | 73 | 224 | 2.6 | 4.3 | 0.00 | 0.00 | 0.00 | 29 | 1006.5 |
| 20260503193120 | 72 | 34 | 3.5 | 4.3 | 0.00 | 0.00 | 0.00 | 31 | 1006.6 |
| 20260503192616 | 72 | 332 | 5.2 | 7.8 | 0.00 | 0.00 | 0.00 | 28 | 1006.4 |
| 20260503192112 | 72 | 14 | 3.5 | 4.3 | 0.00 | 0.00 | 0.00 | 28 | 1006.5 |
| 20260503191604 | 72 | 244 | 5.2 | 6.1 | 0.00 | 0.00 | 0.00 | 25 | 1006.5 |
| 20260503191100 | 72 | 346 | 4.3 | 4.3 | 0.00 | 0.00 | 0.00 | 28 | 1006.5 |
| 20260503190557 | 72 | 7 | 4.3 | 7.8 | 0.00 | 0.00 | 0.00 | 28 | 1006.7 |
| 20260503190055 | 71 | 313 | 11.3 | 14.8 | 0.00 | 0.00 | 0.00 | 28 | 1006.3 |
| 20260503185551 | 72 | 16 | 2.6 | 4.3 | 0.00 | 0.00 | 0.00 | 29 | 1006.5 |
| 20260503185050 | 70 | 182 | 1.7 | 2.6 | 0.00 | 0.00 | 0.00 | 30 | 1006.4 |
| 20260503184546 | 70 | 178 | 0.9 | 1.7 | 0.00 | 0.00 | 0.00 | 33 | 1006.5 |
| 20260503184043 | 70 | 159 | 8.7 | 12.2 | 0.00 | 0.00 | 0.00 | 33 | 1006.7 |
| 20260503183540 | 71 | 323 | 7.0 | 7.8 | 0.00 | 0.00 | 0.00 | 33 | 1006.7 |
| 20260503183037 | 71 | 232 | 5.2 | 7.8 | 0.00 | 0.00 | 0.00 | 32 | 1006.7 |
| 20260503182536 | 71 | 33 | 6.1 | 7.8 | 0.00 | 0.00 | 0.00 | 31 | 1006.9 |
| 20260503182033 | 71 | 314 | 3.5 | 4.3 | 0.00 | 0.00 | 0.00 | 35 | 1006.7 |
| 20260503181529 | 70 | 347 | 5.2 | 7.8 | 0.00 | 0.00 | 0.00 | 33 | 1006.8 |
| 20260503181026 | 70 | 310 | 3.5 | 4.3 | 0.00 | 0.00 | 0.00 | 35 | 1006.7 |
| 20260503180523 | 70 | 132 | 5.2 | 6.1 | 0.00 | 0.00 | 0.00 | 34 | 1006.8 |
| 20260503180020 | 70 | 332 | 2.6 | 2.6 | 0.00 | 0.00 | 0.00 | 35 | 1007.1 |
| 20260503175518 | 70 | 334 | 5.2 | 7.8 | 0.00 | 0.00 | 0.00 | 35 | 1006.9 |
| 20260503175015 | 70 | 178 | 3.5 | 6.1 | 0.00 | 0.00 | 0.00 | 38 | 1006.5 |
| 20260503174513 | 70 | 213 | 1.7 | 2.6 | 0.00 | 0.00 | 0.00 | 36 | 1006.8 |
| 20260503174008 | 70 | 195 | 2.6 | 6.1 | 0.00 | 0.00 | 0.00 | 35 | 1006.9 |
| 20260503173503 | 71 | 19 | 6.1 | 10.4 | 0.00 | 0.00 | 0.00 | 34 | 1006.8 |
| 20260503173000 | 71 | 50 | 3.5 | 4.3 | 0.00 | 0.00 | 0.00 | 35 | 1006.9 |
| 20260503172458 | 70 | 165 | 2.6 | 4.3 | 0.00 | 0.00 | 0.00 | 38 | 1006.9 |
| 20260503171955 | 70 | 303 | 4.3 | 7.8 | 0.00 | 0.00 | 0.00 | 38 | 1006.8 |
| 20260503171451 | 70 | 347 | 2.6 | 4.3 | 0.00 | 0.00 | 0.00 | 39 | 1007.1 |
| 20260503170949 | 69 | 332 | 2.6 | 2.6 | 0.00 | 0.00 | 0.00 | 39 | 1006.9 |
| 20260503170444 | 69 | 39 | 5.2 | 6.1 | 0.00 | 0.00 | 0.00 | 39 | 1006.9 |
| 20260503150837 | 64 | 136 | 6.1 | 8.7 | 0.00 | 0.00 | 0.00 | 42 | 1006.8 |
| 20260503150333 | 64 | 165 | 2.6 | 4.3 | 0.00 | 0.00 | 0.00 | 43 | 1006.8 |
| 20260503140257 | 60 | 336 | 2.6 | 4.3 | 0.00 | 0.00 | 0.00 | 49 | 1006.5 |
| 20260503131227 | 56 | 47 | 3.5 | 6.1 | 0.00 | 0.00 | 0.00 | 51 | 1005.8 |
| 20260503130725 | 56 | 35 | 2.6 | 2.6 | 0.00 | 0.00 | 0.00 | 51 | 1005.8 |
| 20260503130222 | 56 | 254 | 1.7 | 2.6 | 0.00 | 0.00 | 0.00 | 50 | 1005.8 |
| 20260503120147 | 51 | 188 | 0.9 | 1.7 | 0.00 | 0.00 | 0.00 | 55 | 1005.3 |
| 20260503110615 | 51 | 159 | 0.0 | 0.0 | 0.00 | 0.00 | 0.00 | 54 | 1004.6 |
| 20260503110112 | 52 | 165 | 0.0 | 0.0 | 0.00 | 0.00 | 0.00 | 53 | 1004.3 |
| 20260503090502 | 55 | 176 | 3.5 | 6.1 | 0.00 | 0.00 | 0.00 | 47 | 1005.4 |
| 20260503081428 | 58 | 138 | 1.7 | 2.6 | 0.00 | 0.00 | 0.00 | 46 | 1005.5 |
| 20260503080925 | 58 | 163 | 0.0 | 0.0 | 0.00 | 0.00 | 0.00 | 46 | 1005.8 |
| 20260503080421 | 59 | 184 | 1.7 | 2.6 | 0.00 | 0.00 | 0.00 | 45 | 1005.9 |
| 20260503072857 | 59 | 178 | 0.9 | 1.7 | 0.00 | 0.00 | 0.00 | 47 | 1005.9 |
| 20260503072355 | 59 | 314 | 3.5 | 6.1 | 0.00 | 0.00 | 0.00 | 47 | 1006.0 |
| 20260503071851 | 59 | 186 | 1.7 | 2.6 | 0.00 | 0.00 | 0.00 | 48 | 1006.1 |
| 20260503071349 | 59 | 142 | 0.0 | 1.7 | 0.00 | 0.00 | 0.00 | 47 | 1006.1 |
| 20260503070844 | 59 | 177 | 1.7 | 1.7 | 0.00 | 0.00 | 0.00 | 47 | 1006.2 |
| 20260503070343 | 57 | 219 | 2.6 | 4.3 | 0.00 | 0.00 | 0.00 | 48 | 1006.5 |
| 20260503060303 | 56 | 166 | 0.0 | 0.0 | 0.00 | 0.00 | 0.00 | 49 | 1007.6 |
| 20260503054749 | 56 | 187 | 0.0 | 1.7 | 0.00 | 0.00 | 0.00 | 49 | 1007.9 |
| 20260503054246 | 57 | 167 | 0.0 | 0.0 | 0.00 | 0.00 | 0.00 | 48 | 1007.8 |
| 20260503053744 | 57 | 182 | 0.0 | 1.7 | 0.00 | 0.00 | 0.00 | 48 | 1007.9 |
| 20260503053242 | 57 | 170 | 0.0 | 1.7 | 0.00 | 0.00 | 0.00 | 47 | 1007.9 |
| 20260503052738 | 57 | 193 | 0.0 | 1.7 | 0.00 | 0.00 | 0.00 | 48 | 1008.0 |
| 20260503052235 | 57 | 179 | 0.9 | 1.7 | 0.00 | 0.00 | 0.00 | 48 | 1008.1 |
| 20260503051729 | 56 | 174 | 0.0 | 1.7 | 0.00 | 0.00 | 0.00 | 48 | 1008.2 |
| 20260503051228 | 57 | 186 | 0.9 | 1.7 | 0.00 | 0.00 | 0.00 | 48 | 1008.0 |
| 20260503050724 | 57 | 174 | 0.0 | 0.0 | 0.00 | 0.00 | 0.00 | 47 | 1008.0 |
| 20260503050220 | 57 | 172 | 0.0 | 0.0 | 0.00 | 0.00 | 0.00 | 47 | 1008.0 |
| 20260503045718 | 57 | 173 | 0.9 | 2.6 | 0.00 | 0.00 | 0.00 | 46 | 1008.0 |
| 20260503045216 | 57 | 197 | 1.7 | 4.3 | 0.00 | 0.00 | 0.00 | 47 | 1008.0 |
| 20260503044712 | 57 | 174 | 0.0 | 0.0 | 0.00 | 0.00 | 0.00 | 46 | 1008.0 |
| 20260503044210 | 58 | 164 | 0.0 | 0.0 | 0.00 | 0.00 | 0.00 | 46 | 1008.2 |
| 20260503043706 | 58 | 173 | 0.9 | 1.7 | 0.00 | 0.00 | 0.00 | 45 | 1008.2 |
| 20260503043204 | 58 | 167 | 0.0 | 1.7 | 0.00 | 0.00 | 0.00 | 45 | 1008.3 |
| 20260503042659 | 59 | 163 | 0.0 | 0.0 | 0.00 | 0.00 | 0.00 | 45 | 1008.2 |
| 20260503042156 | 59 | 173 | 0.9 | 1.7 | 0.00 | 0.00 | 0.00 | 45 | 1008.5 |
| 20260503041652 | 58 | 170 | 1.7 | 2.6 | 0.00 | 0.00 | 0.00 | 45 | 1008.5 |
| 20260503041150 | 58 | 172 | 0.0 | 0.0 | 0.00 | 0.00 | 0.00 | 46 | 1008.7 |
| 20260503040647 | 58 | 177 | 0.9 | 1.7 | 0.00 | 0.00 | 0.00 | 46 | 1008.7 |
| 20260503040145 | 58 | 174 | 0.0 | 1.7 | 0.00 | 0.00 | 0.00 | 46 | 1008.7 |
| 20260503035641 | 58 | 171 | 0.0 | 0.0 | 0.00 | 0.00 | 0.00 | 46 | 1008.8 |
| 20260503035139 | 59 | 169 | 0.0 | 0.0 | 0.00 | 0.00 | 0.00 | 45 | 1008.9 |
| 20260503034636 | 59 | 179 | 0.0 | 1.7 | 0.00 | 0.00 | 0.00 | 44 | 1009.0 |
| 20260503034133 | 59 | 177 | 0.0 | 1.7 | 0.00 | 0.00 | 0.00 | 46 | 1009.2 |
| 20260503033630 | 59 | 172 | 0.0 | 0.0 | 0.00 | 0.00 | 0.00 | 45 | 1009.2 |
| 20260503033128 | 59 | 167 | 0.0 | 0.0 | 0.00 | 0.00 | 0.00 | 44 | 1009.5 |
| 20260503032626 | 59 | 168 | 0.0 | 0.0 | 0.00 | 0.00 | 0.00 | 43 | 1009.4 |
| 20260503032124 | 60 | 172 | 0.0 | 0.0 | 0.00 | 0.00 | 0.00 | 43 | 1009.4 |
| 20260503031621 | 60 | 170 | 0.0 | 0.0 | 0.00 | 0.00 | 0.00 | 43 | 1009.6 |
| 20260503031119 | 61 | 166 | 1.7 | 2.6 | 0.00 | 0.00 | 0.00 | 42 | 1009.7 |
| 20260503030615 | 61 | 167 | 0.0 | 0.0 | 0.00 | 0.00 | 0.00 | 41 | 1009.7 |
| 20260503030112 | 61 | 179 | 1.7 | 1.7 | 0.00 | 0.00 | 0.00 | 41 | 1010.0 |
| 20260503025609 | 61 | 185 | 1.7 | 2.6 | 0.00 | 0.00 | 0.00 | 42 | 1010.0 |
| 20260503025107 | 61 | 169 | 0.0 | 0.0 | 0.00 | 0.00 | 0.00 | 42 | 1010.2 |
| 20260503024602 | 61 | 168 | 0.9 | 1.7 | 0.00 | 0.00 | 0.00 | 41 | 1010.3 |
| 20260503024100 | 62 | 172 | 0.0 | 0.0 | 0.00 | 0.00 | 0.00 | 42 | 1010.5 |
| 20260503023556 | 62 | 187 | 1.7 | 2.6 | 0.00 | 0.00 | 0.00 | 41 | 1010.4 |
| 20260503023054 | 61 | 165 | 0.9 | 1.7 | 0.00 | 0.00 | 0.00 | 41 | 1010.7 |
| 20260503022549 | 62 | 178 | 0.0 | 0.0 | 0.00 | 0.00 | 0.00 | 41 | 1010.4 |
| 20260503022044 | 62 | 196 | 1.7 | 2.6 | 0.00 | 0.00 | 0.00 | 41 | 1010.4 |
| 20260503021541 | 62 | 181 | 0.0 | 0.0 | 0.00 | 0.00 | 0.00 | 40 | 1010.5 |
| 20260503021038 | 62 | 155 | 0.0 | 0.0 | 0.00 | 0.00 | 0.00 | 40 | 1010.6 |
| 20260503020535 | 62 | 165 | 0.0 | 0.0 | 0.00 | 0.00 | 0.00 | 39 | 1010.8 |
| 20260503020032 | 63 | 181 | 2.6 | 2.6 | 0.00 | 0.00 | 0.00 | 38 | 1010.7 |
| 20260503015529 | 63 | 139 | 0.0 | 0.0 | 0.00 | 0.00 | 0.00 | 38 | 1010.7 |
| 20260503015026 | 63 | 260 | 0.9 | 1.7 | 0.00 | 0.00 | 0.00 | 38 | 1010.6 |
| 20260503014522 | 63 | 157 | 0.9 | 1.7 | 0.00 | 0.00 | 0.00 | 37 | 1010.6 |
| 20260503014021 | 63 | 159 | 0.0 | 0.0 | 0.00 | 0.00 | 0.00 | 37 | 1010.8 |
| 20260503013517 | 63 | 179 | 0.0 | 1.7 | 0.00 | 0.00 | 0.00 | 37 | 1010.7 |
| 20260503013015 | 63 | 161 | 1.7 | 1.7 | 0.00 | 0.00 | 0.00 | 36 | 1010.7 |
| 20260503012512 | 63 | 169 | 0.0 | 0.0 | 0.00 | 0.00 | 0.00 | 37 | 1010.5 |
| 20260503012008 | 63 | 271 | 0.9 | 2.6 | 0.00 | 0.00 | 0.00 | 37 | 1010.7 |
| 20260503011506 | 63 | 174 | 0.0 | 0.0 | 0.00 | 0.00 | 0.00 | 38 | 1010.7 |
| 20260503011003 | 63 | 240 | 0.9 | 1.7 | 0.00 | 0.00 | 0.00 | 37 | 1010.8 |
| 20260503010458 | 63 | 178 | 0.9 | 1.7 | 0.00 | 0.00 | 0.00 | 38 | 1010.7 |
| 20260503005956 | 64 | 184 | 0.0 | 0.0 | 0.00 | 0.00 | 0.00 | 37 | 1010.9 |
| 20260503005453 | 64 | 43 | 1.7 | 1.7 | 0.00 | 0.00 | 0.00 | 37 | 1010.8 |
| 20260503004950 | 64 | 190 | 0.0 | 1.7 | 0.00 | 0.00 | 0.00 | 37 | 1010.8 |
| 20260503004446 | 64 | 174 | 0.9 | 1.7 | 0.00 | 0.00 | 0.00 | 37 | 1010.7 |
| 20260503003944 | 64 | 134 | 3.5 | 4.3 | 0.00 | 0.00 | 0.00 | 36 | 1010.7 |
| 20260503003441 | 64 | 139 | 7.0 | 12.2 | 0.00 | 0.00 | 0.00 | 36 | 1010.7 |
| 20260503002938 | 64 | 197 | 3.5 | 4.3 | 0.00 | 0.00 | 0.00 | 37 | 1010.8 |
| 20260503002435 | 64 | 168 | 1.7 | 2.6 | 0.00 | 0.00 | 0.00 | 37 | 1010.9 |
| 20260503001931 | 64 | 167 | 0.0 | 0.0 | 0.00 | 0.00 | 0.00 | 38 | 1010.9 |
| 20260503001428 | 64 | 226 | 0.0 | 1.7 | 0.00 | 0.00 | 0.00 | 38 | 1011.0 |
| 20260503000926 | 64 | 168 | 0.0 | 0.0 | 0.00 | 0.00 | 0.00 | 39 | 1010.8 |
| 20260503000422 | 64 | 160 | 1.7 | 2.6 | 0.00 | 0.00 | 0.00 | 38 | 1011.0 |
| 20260502235920 | 64 | 137 | 0.9 | 1.7 | 0.00 | 0.00 | 0.00 | 38 | 1010.9 |
| 20260502235416 | 65 | 152 | 1.7 | 2.6 | 0.00 | 0.00 | 0.00 | 38 | 1011.3 |
| 20260502234914 | 65 | 179 | 3.5 | 4.3 | 0.00 | 0.00 | 0.00 | 36 | 1011.2 |
| 20260502234411 | 65 | 17 | 1.7 | 4.3 | 0.00 | 0.00 | 0.00 | 35 | 1011.1 |
| 20260502233908 | 66 | 193 | 4.3 | 6.1 | 0.00 | 0.00 | 0.00 | 34 | 1011.0 |
| 20260502233403 | 66 | 164 | 3.5 | 4.3 | 0.00 | 0.00 | 0.00 | 34 | 1010.8 |
| 20260502232900 | 66 | 76 | 1.7 | 2.6 | 0.00 | 0.00 | 0.00 | 34 | 1011.2 |
| 20260502232356 | 66 | 169 | 0.0 | 0.0 | 0.00 | 0.00 | 0.00 | 34 | 1011.3 |
| 20260502231853 | 66 | 173 | 0.0 | 0.0 | 0.00 | 0.00 | 0.00 | 34 | 1011.0 |
| 20260502231351 | 66 | 166 | 1.7 | 2.6 | 0.00 | 0.00 | 0.00 | 32 | 1011.0 |
| 20260502230849 | 66 | 182 | 1.7 | 2.6 | 0.00 | 0.00 | 0.00 | 32 | 1011.1 |
| 20260502230347 | 67 | 176 | 1.7 | 2.6 | 0.00 | 0.00 | 0.00 | 32 | 1011.1 |
| 20260502225843 | 67 | 156 | 0.9 | 1.7 | 0.00 | 0.00 | 0.00 | 33 | 1011.1 |